sat.trackr.live / text

‹ back to catalog

STARLINK-33770

NORAD 63906 · 2025-095S

PAYLOAD ACTIVE UNKNOWN

§ Identity

Operator
Country
US
Launch date
2025-05-10
Launch site
AFETR
Launch vehicle
Mass (kg)
RCS (m²)

Purposes: comms

External: N2YO · Heavens-Above · Gunter

§ Orbital elements

Epoch: 2026-05-24T08:38:42.945792Z

Period
94.27 min
Inclination
43.0025°
Eccentricity
0.0002052
Mean motion
15.27605129 rev/d
Perigee alt
481.6 km
Apogee alt
484.4 km
Semi-major
6,861.1 km
B*
5.2517e-4
RAAN
108.6061°
Arg perigee
276.2238°
Mean anomaly
83.8380°
Rev number
5,935

§ Raw data

STARLINK-337701 63906U 25095S   26144.36021928  .00014228  00000+0  52517-3 0  99922 63906  43.0025 108.6061 0002052 276.2238  83.8380 15.27605129 59351

JSON: /api/v1/satellites/63906 · /tle

For live sub-satellite position, see the globe view (requires WebGL).

§ Visibility from observer

Set your observer location to see the next 7 days of passes ≥ 10°. The values pass through the URL so the page stays shareable.

No JS? Fill the form by hand. The geolocation button needs JavaScript.